Theta_e
348 353 353 353 349 344 346 341 338 341 350 354 358 351 344 342 345 348 351 352 353 360 364 365 364 366 365 359 359 356 356 350 352 349 347 348 350 351 350 351 347 350 352
347 353 354 346 341 346 346 350 346 349 356 361 358 355 347 346 348 348 351 352 355 358 359 360 361 359 358 358 356 357 354 353 355 347 352 340 343 343 347 347 349 347 349
350 352 352 346 346 349 348 357 353 359 362 359 355 352 351 349 344 347 350 351 355 356 356 356 356 357 357 348 360 355 354 352 356 354 346 339 340 342 347 350 349 352 355
351 351 351 344 350 349 356 359 361 362 358 357 355 354 346 345 355 354 358 361 355 354 353 354 355 356 352 357 354 361 357 355 348 355 355 349 350 343 341 353 357 354 352
349 349 351 345 351 352 352 352 362 361 358 359 358 353 354 357 353 353 353 357 356 351 351 354 357 356 357 358 356 357 355 356 351 350 350 350 347 346 345 336 342 344 345
348 350 351 343 349 350 353 356 360 358 359 357 357 354 352 353 353 354 352 349 348 348 352 351 353 353 354 357 358 357 355 355 355 355 348 344 347 347 343 344 338 339 339
347 345 343 342 344 347 352 355 357 355 356 355 355 356 355 355 353 351 347 347 343 344 351 353 353 352 355 356 357 356 355 354 353 353 352 349 350 351 353 348 337 337 341
344 345 344 342 342 344 350 353 354 353 354 354 356 359 356 349 347 348 345 344 349 349 349 350 350 351 353 353 353 349 349 351 352 352 354 354 355 357 357 352 339 334 338
346 345 341 341 343 343 348 353 353 353 353 354 358 357 354 350 349 351 354 347 349 346 347 346 346 348 348 349 351 347 349 351 351 350 352 355 357 358 356 353 349 339 331
346 341 342 348 348 349 354 356 355 352 353 355 354 352 353 351 350 349 347 348 347 349 347 345 345 345 348 350 352 348 347 346 346 347 349 351 354 355 355 354 352 350 344
339 343 347 350 353 354 353 352 353 353 353 352 353 352 350 350 348 346 347 347 347 347 346 345 346 345 345 345 346 346 343 341 341 344 344 345 350 352 351 355 353 350 350
340 342 347 349 351 349 345 350 351 350 349 350 352 352 350 348 346 345 346 346 345 346 346 345 345 344 344 344 343 341 342 338 338 339 341 342 341 343 345 343 346 348 349
339 342 345 350 351 345 346 348 347 345 344 347 349 349 348 348 347 345 346 346 344 344 343 343 342 342 342 341 342 342 340 338 337 338 339 338 341 339 340 340 339 339 339
341 345 347 352 352 342 347 347 346 344 343 344 347 348 348 348 347 349 347 345 344 343 342 343 341 340 340 339 339 339 339 339 338 337 336 334 335 337 340 339 342 338 330
339 345 346 349 348 339 345 348 346 345 342 347 347 348 351 351 351 349 347 346 345 343 342 342 340 339 337 334 335 337 337 336 336 335 333 331 329 327 328 337 339 340 330
337 342 346 349 345 340 345 348 347 346 346 343 346 350 351 351 350 348 346 346 344 343 343 341 340 337 330 324 326 331 332 332 332 332 333 334 331 326 323 325 325 332 338
336 338 343 348 347 343 345 347 349 349 347 346 347 351 350 350 349 349 347 345 344 344 340 340 339 337 331 321 322 328 332 332 331 331 331 329 329 332 331 325 324 323 324
336 339 345 348 348 345 347 349 349 350 347 346 349 350 351 350 350 349 348 346 344 341 340 340 342 338 328 318 318 323 334 333 333 332 330 326 326 321 327 321 318 319 320
345 346 350 348 350 346 349 345 345 347 344 341 346 347 351 351 349 347 348 348 344 341 338 339 339 336 331 315 316 320 334 332 331 331 328 328 323 314 313 324 320 317 314
343 346 349 351 350 349 348 346 342 340 337 339 346 348 350 352 350 347 349 350 345 341 336 338 339 328 333 313 312 316 330 329 328 330 327 313 318 308 308 327 325 322 322
338 345 349 347 349 348 347 343 341 337 342 341 345 345 341 342 347 348 350 347 344 342 339 335 336 334 331 326 310 311 327 324 325 325 323 316 306 305 306 308 323 321 322
337 341 340 341 344 348 346 344 342 340 341 338 341 340 341 344 345 346 349 346 340 335 336 333 331 332 331 317 309 309 312 320 321 319 319 312 304 302 304 311 305 306 308
336 337 338 339 340 341 344 341 336 337 337 336 336 334 335 336 341 344 339 334 332 331 331 330 330 328 330 327 306 306 309 312 318 319 311 304 301 301 305 306 308 306 316
339 340 338 337 335 337 337 337 335 334 334 333 332 331 332 333 334 336 331 328 327 327 328 329 325 327 328 327 325 322 318 309 314 308 309 309 310 307 312 311 312 315 313
339 339 337 336 335 333 334 335 333 333 332 330 330 329 329 326 318 314 315 326 326 321 328 329 327 327 326 324 312 316 323 320 314 313 312 312 315 317 318 315 315 315 315
338 337 337 335 334 333 333 332 333 332 330 329 329 328 328 320 316 314 311 302 301 300 303 303 315 318 304 299 298 297 298 300 302 312 312 315 318 317 313 313 312 313 311
Wind_Speed
15 14 17 15 12 9 10 7 9 5 2 3 3 5 3 3 2 4 3 7 6 10 8 6 7 6 5 6 6 8 10 7 6 7 8 5 9 10 7 7 9 10 9
12 11 17 12 7 11 8 7 9 4 6 2 3 2 5 3 1 3 5 5 8 6 3 3 6 5 4 7 8 6 6 6 6 5 5 6 8 6 9 7 7 11 7
14 9 10 16 9 14 7 9 7 5 6 4 6 6 6 5 2 3 3 5 7 4 1 3 4 4 7 8 6 5 8 7 5 9 5 4 3 3 6 7 1 6 3
14 10 10 12 15 12 11 10 10 9 7 5 5 6 2 2 2 1 0 1 4 4 3 4 5 4 8 8 6 3 5 5 7 4 6 9 4 3 2 2 4 3 4
10 10 11 10 10 7 10 10 10 9 9 6 4 5 2 3 3 1 2 4 2 3 7 4 3 5 4 6 7 6 6 4 5 6 5 4 7 8 3 2 3 7 4
11 10 10 6 6 8 9 11 11 10 10 7 5 1 2 4 3 1 3 4 1 4 5 3 4 4 4 5 4 4 4 3 4 5 5 5 3 5 6 3 6 6 5
12 12 9 7 7 10 10 11 12 11 11 9 6 5 3 3 5 3 4 5 3 3 3 3 4 3 3 3 3 4 5 4 3 4 3 5 6 5 4 4 3 3 3
12 9 7 7 11 10 9 11 11 11 11 10 6 5 5 4 5 3 4 2 1 4 4 4 5 6 7 7 5 6 5 5 6 7 3 3 5 3 5 2 5 5 3
12 10 10 10 11 11 12 12 11 12 11 10 8 6 6 3 7 4 4 3 4 2 6 4 4 6 4 2 2 5 7 7 7 7 6 5 5 3 2 2 3 5 4
11 9 10 11 12 12 10 13 13 11 13 10 9 8 7 7 6 3 4 4 4 4 6 3 4 4 6 7 8 9 9 9 8 6 8 8 6 5 4 1 4 4 3
10 9 10 10 12 11 11 11 12 10 9 8 4 9 8 7 7 4 4 6 4 4 4 3 5 5 7 6 5 8 8 8 8 8 10 8 10 6 6 4 3 3 4
7 8 9 11 12 11 6 10 10 12 11 8 5 9 8 7 7 5 5 4 4 4 4 5 6 7 8 8 8 9 9 9 8 10 10 11 9 10 9 8 8 6 4
4 6 8 7 9 6 7 9 11 12 13 10 11 10 9 8 5 6 4 4 4 4 5 5 6 7 7 8 8 8 9 8 8 8 9 9 8 8 6 6 6 8 6
5 6 7 7 9 4 7 9 10 11 12 11 10 9 10 8 7 5 5 5 4 4 4 5 5 6 6 7 7 8 8 8 10 11 12 12 11 10 7 6 8 9 9
4 6 6 8 9 6 7 8 9 10 12 10 9 8 9 8 7 5 5 5 4 4 4 4 4 4 5 7 6 6 7 8 9 10 12 12 14 16 17 8 9 7 10
3 4 7 9 10 9 7 9 9 9 13 13 9 8 8 10 8 7 6 6 4 4 3 3 3 5 7 9 10 8 7 7 7 8 8 8 12 13 13 12 15 13 8
2 2 4 7 9 9 7 8 8 8 8 10 10 9 7 9 8 8 7 7 4 4 2 2 4 6 7 6 8 11 6 6 7 6 6 7 7 7 10 8 12 14 12
2 2 4 5 9 10 7 5 6 7 6 4 7 8 9 10 9 9 9 7 7 6 4 3 4 7 6 5 7 10 5 5 6 7 8 8 7 10 8 10 10 10 11
4 5 4 5 9 8 8 6 6 8 4 3 6 9 11 10 10 9 9 10 7 7 6 5 5 6 6 1 7 9 5 5 6 7 9 7 7 10 13 8 8 8 8
6 3 4 6 6 6 4 6 6 7 4 3 10 6 9 10 10 9 9 8 9 9 7 5 6 5 7 2 5 7 3 4 4 6 7 11 8 8 10 2 4 4 4
4 5 6 6 6 6 5 6 8 8 3 3 2 1 2 3 4 9 8 10 10 8 6 8 6 7 6 6 0 7 4 3 4 3 5 6 6 7 9 9 6 4 3
6 4 6 6 4 2 3 7 7 5 4 5 1 2 2 4 5 9 8 8 8 8 7 9 8 7 6 4 5 2 6 6 6 4 4 4 2 3 6 2 3 5 7
6 6 6 6 5 3 2 1 6 3 3 3 3 3 2 4 4 5 5 6 7 6 6 8 8 7 7 6 7 5 5 5 4 4 6 8 3 2 5 2 7 7 7
7 7 6 6 5 3 2 6 6 4 4 5 4 4 2 1 3 0 5 6 6 5 2 7 6 4 6 7 8 7 6 5 5 7 5 3 4 5 0 5 8 1 5
5 5 4 5 6 3 1 3 4 5 3 3 3 4 4 3 3 4 4 3 2 2 9 8 5 7 7 5 7 4 7 7 6 7 5 6 8 9 7 4 1 2 4
5 5 5 6 6 7 4 3 4 5 4 4 5 5 6 4 4 4 3 12 8 7 9 11 2 7 10 12 12 9 8 9 10 7 8 9 8 3 3 3 4 5 2
Wind_Direction
179 163 95 93 87 164 136 206 247 36 266 262 6 131 157 186 234 241 257 251 243 246 220 223 231 233 273 254 249 239 235 271 291 316 272 258 220 245 220 233 235 220 202
162 116 119 117 175 213 203 228 170 130 230 184 131 95 137 153 46 319 300 271 261 237 259 236 231 229 260 245 254 271 274 271 251 238 259 262 246 221 238 237 225 216 228
138 163 160 134 210 218 176 224 133 190 187 148 117 119 141 123 176 242 246 227 214 204 260 286 295 296 253 272 204 245 250 259 221 222 243 283 247 244 185 203 53 24 333
148 176 163 159 182 206 158 176 163 149 142 203 134 167 189 156 83 221 284 283 4 338 314 296 295 289 300 338 321 319 273 274 266 270 261 252 265 295 233 4 77 63 22
138 167 145 165 121 158 157 165 163 153 149 160 162 196 237 134 119 34 336 297 261 330 348 343 355 333 329 294 283 278 269 252 251 244 247 238 248 241 254 172 135 95 53
130 142 131 187 129 179 155 157 149 147 153 153 127 165 134 125 125 76 263 292 284 55 339 15 3 339 314 316 308 304 265 279 242 245 229 226 239 248 227 222 165 119 68
129 135 151 194 164 179 167 150 154 157 162 169 151 142 149 81 141 217 93 290 329 36 7 11 20 340 5 359 8 4 328 8 303 244 252 229 232 261 255 230 137 137 133
137 146 145 156 173 173 168 152 160 165 168 161 138 111 155 133 116 60 358 342 121 78 357 13 25 23 18 34 29 38 357 5 17 19 357 265 275 226 238 231 144 137 126
158 150 140 157 173 176 186 151 157 173 176 152 136 168 141 134 91 104 218 115 336 123 91 37 34 34 13 45 257 51 33 20 34 18 13 19 19 9 54 128 164 144 154
146 139 155 157 163 163 150 161 174 175 164 142 162 148 144 134 120 98 47 46 52 57 58 43 51 48 46 17 20 51 36 22 21 29 28 34 23 36 44 26 128 176 144
148 161 155 165 140 163 166 173 166 155 139 157 186 142 140 130 117 124 91 64 47 39 102 95 94 81 77 59 51 95 60 35 28 13 24 21 29 48 33 55 63 105 132
143 166 169 185 161 164 135 154 165 152 155 159 153 137 142 133 121 103 84 89 70 74 67 64 64 60 59 54 59 55 67 51 39 39 39 34 38 25 22 47 53 53 78
181 166 173 182 149 134 158 163 169 170 156 163 172 157 146 129 114 128 124 123 117 86 70 70 69 64 62 66 61 60 77 77 61 43 57 50 40 53 42 51 61 59 62
163 156 176 158 175 166 165 172 176 162 164 193 169 153 140 137 150 150 159 145 111 100 90 78 78 80 76 71 69 73 66 72 79 64 53 48 40 33 52 53 75 79 75
184 140 195 185 180 165 181 171 179 169 170 182 164 162 144 156 149 166 172 147 137 106 105 109 105 100 65 47 48 79 77 71 74 81 77 65 59 50 43 49 50 99 104
190 184 174 206 184 161 185 173 182 187 177 191 184 161 183 166 157 176 183 166 148 154 152 133 114 84 71 16 9 24 75 79 76 74 80 119 100 71 56 58 53 47 87
202 213 188 206 176 174 164 186 187 197 196 192 167 163 195 166 168 171 182 167 161 163 174 143 115 87 93 20 1 339 84 88 87 73 60 74 57 76 91 94 77 59 49
353 280 196 195 169 165 159 109 173 196 213 238 182 161 187 192 178 193 166 184 156 169 185 191 104 115 88 3 338 340 99 88 79 86 80 68 68 35 44 81 71 62 49
346 335 328 186 155 161 138 162 187 191 168 73 242 189 201 193 175 191 189 178 162 169 177 181 135 140 135 5 334 330 148 101 89 61 35 85 74 11 3 95 104 105 102
353 252 224 143 127 98 162 181 185 187 192 210 270 246 219 202 177 187 199 184 171 168 182 161 161 131 145 175 346 336 224 120 96 122 111 58 50 13 7 97 114 94 80
30 17 348 119 111 143 162 178 177 181 182 238 276 244 336 340 201 202 201 180 174 167 170 170 151 177 158 163 85 357 114 165 208 116 78 69 33 25 3 351 12 37 342
89 86 76 63 59 153 240 187 184 102 75 48 201 172 332 218 220 230 200 174 164 161 175 166 177 163 171 131 157 51 33 31 102 156 116 117 108 38 4 345 9 318 295
100 105 105 99 94 66 84 162 115 157 182 180 154 85 62 322 313 220 168 155 151 169 186 183 177 167 179 153 115 119 100 101 142 162 102 116 173 231 142 281 280 278 251
138 133 124 96 93 75 88 119 134 135 166 177 165 174 205 220 309 184 157 164 167 183 180 171 174 171 185 165 172 168 163 130 151 137 148 177 255 269 61 194 233 47 14
87 81 84 83 79 86 88 142 147 144 175 179 184 188 170 167 103 45 356 202 149 199 190 181 198 190 195 165 97 132 176 182 139 137 170 202 212 209 199 151 80 82 175
117 105 107 131 153 164 164 181 153 151 183 216 213 207 180 156 155 157 112 44 36 31 58 51 46 102 76 104 98 92 83 101 140 198 191 211 220 199 145 174 148 144 168